Weather reports worldwide

Advertisment
Hof, Germany (10685): temperature & dewpoint: 01.08.2020 02:00:00 - 07.08.2020 02:00:00 (CEST)Hof, Germany (10685): temperature 5cm & temperature -5cm: 01.08.2020 02:00:00 - 07.08.2020 02:00:00 (CEST)Hof, Germany (10685): temperature -20cm & temperature -100cm: 01.08.2020 02:00:00 - 07.08.2020 02:00:00 (CEST)Hof, Germany (10685): wind speed & gusts: 01.08.2020 02:00:00 - 07.08.2020 02:00:00 (CEST)Hof, Germany (10685): wind direction: 01.08.2020 02:00:00 - 07.08.2020 02:00:00 (CEST)Hof, Germany (10685): reduced air pressure: 01.08.2020 02:00:00 - 07.08.2020 02:00:00 (CEST)Hof, Germany (10685): visibility: 01.08.2020 02:00:00 - 07.08.2020 02:00:00 (CEST)Hof, Germany (10685): sunshine duration: 01.08.2020 02:00:00 - 07.08.2020 02:00:00 (CEST)Hof, Germany (10685): precipitation: 01.08.2020 02:00:00 - 07.08.2020 02:00:00 (CEST)
Date & Time tt [°C] td [°C] tt 5cm [°C] tt -5cm [°C] tt -20cm [°C] tt -100cm [°C] ff [km/h] ff [kn] fx [km/h] fx [kn] dd ppp [hPa] vv [km] sd [min] rr [mm]
07.08.2020 02:00:00 16,6 10,5 11,8 18,3 21,5 16,7 3 2 4 2 SE 1022,3 66 0 0,0
07.08.2020 01:00:00 16,9 9,7 11,9 19,2 21,8 16,7 0 0 6 3 N 1022,1 63 0 0,0
07.08.2020 00:00:00 18,3 9,6 14,5 20,1 22,2 16,8 4 2 6 3 WNW 1021,8 60 0 0,0
06.08.2020 23:00:00 18,4 10,1 15,5 21,3 22,4 16,8 5 3 8 5 W 1021,5 66 0 0,0
06.08.2020 22:00:00 21,7 9,4 16,2 22,7 22,6 16,8 3 2 9 5 E 1020,5 70 0 0,0
06.08.2020 21:00:00 22,9 9,2 18,7 24,4 22,6 16,8 5 3 14 8 NNE 1019,7 64 17 0,0
06.08.2020 20:00:00 25,6 8,8 24,3 26,2 22,4 16,8 7 4 18 10 NNE 1018,8 54 60 0,0
06.08.2020 19:00:00 26,2 8,2 27,9 27,8 22,1 16,8 8 4 14 8 NE 1018,5 68 60 0,0
06.08.2020 18:00:00 26,5 8,6 30,1 29,0 21,6 16,8 7 4 16 9 N 1018,4 64 60 0,0
06.08.2020 17:00:00 27,0 9,2 31,3 30,5 21,0 16,8 9 5 21 11 N 1018,4 56 60 0,0
06.08.2020 16:00:00 26,1 8,8 31,3 31,3 20,4 16,8 6 4 22 12 NNE 1018,8 71 60 0,0
06.08.2020 15:00:00 25,6 8,2 30,5 31,0 19,6 16,8 5 3 19 10 SW 1019,1 75 60 0,0
06.08.2020 14:00:00 25,1 8,1 30,7 29,9 19,0 16,8 8 4 19 11 SE 1019,7 48 60 0,0
06.08.2020 13:00:00 24,1 8,0 28,0 28,3 18,3 16,8 9 5 21 11 N 1020,2 44 60 0,0
06.08.2020 12:00:00 22,7 8,1 28,7 25,8 17,9 16,8 7 4 20 11 NNE 1020,6 75 60 0,0
06.08.2020 11:00:00 21,7 7,9 26,8 23,0 17,5 16,8 6 3 14 7 NE 1020,9 68 60 0,0
06.08.2020 10:00:00 20,8 9,3 23,7 20,0 17,4 16,8 5 3 11 6 ENE 1021,1 75 60 0,0
06.08.2020 09:00:00 18,9 9,8 20,5 17,2 17,4 16,9 4 2 8 4 ESE 1021,3 75 60 0,0
06.08.2020 08:00:00 14,0 9,6 15,2 14,6 17,6 16,9 5 3 8 4 SE 1021,9 51 60 0,0
06.08.2020 07:00:00 11,5 8,4 11,7 13,0 17,9 16,9 3 2 10 5 SE 1022,2 62 37 0,0
06.08.2020 06:00:00 10,1 8,4 8,7 13,0 18,2 16,9 6 4 10 5 SE 1022,3 48 0 0,0
06.08.2020 05:00:00 10,7 8,3 6,8 13,5 18,6 16,9 4 2 7 4 SE 1022,1 53 0 0,0
06.08.2020 04:00:00 11,3 8,5 7,3 14,1 18,9 16,9 4 2 8 4 SSE 1021,8 61 0 0,0
06.08.2020 03:00:00 11,9 8,4 7,7 14,7 19,2 16,9 2 1 5 3 ESE 1021,4 61 0 0,0
06.08.2020 02:00:00 12,5 8,4 8,4 15,4 19,6 16,9 2 1 10 5 SSE 1021,2 64 0 0,0
06.08.2020 01:00:00 13,7 8,3 11,6 16,2 19,9 16,9 4 2 10 5 SSE 1020,9 64 0 0,0
06.08.2020 00:00:00 14,8 8,2 9,5 17,1 20,2 17,0 0 0 9 5 N 1020,6 55 0 0,0
05.08.2020 23:00:00 17,1 7,8 12,8 18,1 20,5 17,0 6 4 11 6 S 1019,6 75 0 0,0
05.08.2020 22:00:00 18,0 7,0 13,0 19,5 20,6 17,0 4 2 6 4 S 1019,2 69 0 0,0
05.08.2020 21:00:00 19,4 5,6 13,9 21,3 20,6 17,0 4 2 7 4 SSE 1018,4 61 18 0,0
05.08.2020 20:00:00 22,2 4,5 21,0 23,1 20,5 17,0 6 3 13 7 S 1017,5 72 60 0,0
05.08.2020 19:00:00 22,9 4,7 24,3 24,6 20,1 17,0 6 4 17 9 S 1017,0 70 60 0,0
05.08.2020 18:00:00 23,2 5,5 26,1 25,8 19,6 17,0 9 5 16 9 SSE 1017,0 75 60 0,0
05.08.2020 17:00:00 23,5 5,2 28,3 27,1 19,1 17,0 4 2 18 10 S 1017,1 58 60 0,0
05.08.2020 16:00:00 23,2 5,1 28,1 27,6 18,5 17,0 10 5 18 10 SSE 1017,2 75 60 0,0
05.08.2020 15:00:00 22,4 5,0 27,2 26,8 17,9 17,1 8 4 20 11 S 1017,8 69 60 0,0
05.08.2020 14:00:00 23,0 6,3 28,6 24,1 17,4 17,1 4 2 13 7 S 1018,0 75 34 0,0
05.08.2020 13:00:00 21,9 6,7 28,5 23,5 16,9 17,1 8 4 16 9 SW 1018,2 75 43 0,0
05.08.2020 12:00:00 19,5 5,9 20,5 22,7 16,4 17,1 7 4 17 9 WNW 1018,9 74 42 0,0
05.08.2020 11:00:00 20,9 8,8 25,4 21,2 16,0 17,1 5 3 16 9 SSW 1018,5 72 59 0,0
05.08.2020 10:00:00 19,0 9,6 21,6 18,6 15,8 17,1 8 4 13 7 S 1019,1 60 60 0,0
05.08.2020 09:00:00 15,7 11,4 17,1 15,6 15,8 17,1 4 2 8 4 SE 1020,0 64 60 0,0
05.08.2020 08:00:00 11,7 9,7 11,7 12,8 15,9 17,1 6 4 10 6 SE 1020,9 36 60 0,0
05.08.2020 07:00:00 9,4 8,9 9,3 11,1 16,1 17,1 6 3 13 7 SE 1021,1 17 39 0,0
05.08.2020 06:00:00 8,7 8,4 7,4 11,1 16,4 17,1 4 2 11 6 SE 1021,0 12 0 0,0
05.08.2020 05:00:00 9,0 8,7 7,9 11,4 16,6 17,2 8 4 12 7 SSE 1020,8 11 0 0,0
05.08.2020 04:00:00 9,4 9,0 6,8 11,8 16,9 17,2 3 2 6 3 SSE 1020,2 14 0 0,0
05.08.2020 03:00:00 10,0 9,6 7,5 12,2 17,1 17,2 4 2 9 5 SSE 1019,9 12 0 0,0
05.08.2020 02:00:00 10,6 9,9 7,6 12,8 17,3 17,2 3 2 10 6 S 1019,5 19 0 0,0
05.08.2020 01:00:00 12,2 10,6 9,5 13,3 17,5 17,2 7 4 12 6 WSW 1019,0 44 0 0,0
05.08.2020 00:00:00 12,6 10,3 10,5 13,8 17,7 17,2 6 4 11 6 W 1019,0 51 0 0,0
04.08.2020 23:00:00 13,2 10,1 9,3 14,5 17,9 17,2 4 2 9 5 WSW 1018,7 64 0 0,0
04.08.2020 22:00:00 15,0 10,0 12,6 15,5 18,0 17,2 6 3 11 6 WSW 1018,1 75 0 0,0
04.08.2020 21:00:00 15,9 10,1 14,5 16,4 18,0 17,2 6 3 12 7 SSW 1017,3 74 0 0,0
04.08.2020 20:00:00 16,6 9,8 16,0 17,1 18,0 17,2 8 4 15 8 SSW 1016,7 60 34 0,0
04.08.2020 19:00:00 17,0 9,7 16,3 17,3 18,0 17,2 5 3 13 7 W 1015,8 59 5 0,0
04.08.2020 18:00:00 16,8 9,3 16,7 17,4 18,0 17,2 5 3 12 6 NNW 1015,7 66 0 0,0
04.08.2020 17:00:00 17,0 8,7 16,9 18,5 17,8 17,2 8 4 14 8 ENE 1015,4 75 0 0,0
04.08.2020 16:00:00 17,1 8,9 17,9 18,0 17,7 17,2 9 5 19 11 N 1015,2 75 0 0,0
04.08.2020 15:00:00 17,2 8,4 19,1 18,8 17,5 17,3 12 7 23 13 N 1014,8 75 0 0,0
04.08.2020 14:00:00 16,9 8,5 18,6 18,4 17,3 17,3 13 7 24 13 N 1014,5 75 1 0,0
04.08.2020 13:00:00 16,8 9,1 19,8 17,8 17,2 17,3 14 7 28 15 N 1014,1 65 3 0,0
04.08.2020 12:00:00 15,5 9,1 16,7 16,7 17,2 17,3 18 10 29 16 N 1014,0 69 0 0,0
04.08.2020 11:00:00 14,7 9,6 15,8 15,4 17,2 17,3 16 8 26 14 N 1013,7 59 0 0,0
04.08.2020 10:00:00 13,9 9,2 14,7 15,1 17,2 17,3 16 8 24 13 N 1013,3 56 0 0,0
04.08.2020 09:00:00 13,1 9,6 13,4 14,3 17,3 17,3 10 5 18 10 N 1013,0 49 0 0,0
04.08.2020 08:00:00 12,4 9,7 12,4 13,9 17,5 17,3 9 5 17 9 N 1012,8 56 0 0,0
04.08.2020 07:00:00 12,3 9,5 12,2 13,7 17,6 17,3 9 5 16 8 NNW 1012,7 51 0 0,0
04.08.2020 06:00:00 12,3 9,0 11,8 13,7 17,8 17,3 9 5 14 8 NNW 1011,8 63 0 0,0
04.08.2020 05:00:00 12,9 8,5 12,0 13,8 18,0 17,3 8 4 17 9 N 1011,3 57 0 0,0
04.08.2020 04:00:00 13,4 8,3 12,7 14,0 18,2 17,3 12 6 25 13 N 1011,1 69 0 0,0
04.08.2020 03:00:00 13,3 8,2 12,5 14,2 18,4 17,3 10 5 16 9 N 1011,0 75 0 0,0
04.08.2020 02:00:00 13,5 8,4 12,5 14,5 18,6 17,3 6 3 18 10 N 1010,8 68 0 0,0
04.08.2020 01:00:00 14,2 8,3 12,9 14,7 18,8 17,3 8 5 15 8 NNE 1010,8 66 0 0,0
04.08.2020 00:00:00 13,9 8,6 12,9 15,1 19,0 17,3 9 5 14 8 N 1010,8 63 0 0,0
03.08.2020 23:00:00 14,1 9,2 13,2 15,5 19,2 17,3 8 4 14 7 NNW 1010,8 57 0 0,0
03.08.2020 22:00:00 14,7 9,2 13,8 15,9 19,4 17,3 8 5 17 9 N 1010,8 58 0 0,0
03.08.2020 21:00:00 15,6 9,0 14,3 16,6 19,5 17,3 11 6 20 11 N 1009,9 60 3 0,0
03.08.2020 20:00:00 16,7 8,5 15,9 17,6 19,5 17,3 10 5 23 13 NNE 1009,8 56 0 0,0
03.08.2020 19:00:00 17,1 8,4 17,0 18,2 19,5 17,3 13 7 22 12 N 1009,9 58 0 0,0
03.08.2020 18:00:00 17,2 9,5 17,5 19,0 19,5 17,3 11 6 22 12 NNE 1010,1 56 0 0,0
03.08.2020 17:00:00 16,6 10,2 18,1 19,4 19,5 17,3 9 5 22 12 NNE 1010,4 42 2 0,0
03.08.2020 16:00:00 15,8 10,9 17,0 18,5 19,5 17,2 8 5 15 8 NE 1011,2 39 0 0,0
03.08.2020 15:00:00 15,3 11,0 16,4 18,4 19,5 17,2 6 4 19 10 NNE 1011,9 45 0 0,0
03.08.2020 14:00:00 15,2 10,8 16,8 18,3 19,6 17,2 12 6 22 12 N 1012,0 38 0 0,0
03.08.2020 13:00:00 15,1 11,1 17,0 18,4 19,6 17,2 15 8 25 14 N 1012,1 42 0 0,0
03.08.2020 12:00:00 15,0 11,1 16,2 18,6 19,6 17,2 10 5 20 11 NNE 1012,5 43 0 0,0
03.08.2020 11:00:00 14,6 11,1 15,8 17,9 19,7 17,2 11 6 22 12 N 1012,7 43 0 0,0
03.08.2020 10:00:00 14,1 11,2 14,1 17,2 19,8 17,2 11 6 21 11 N 1012,9 44 0 0,0
03.08.2020 09:00:00 13,7 11,5 13,7 16,7 20,0 17,2 12 7 19 10 N 1013,0 35 0 0,0
03.08.2020 08:00:00 13,5 12,2 13,2 16,7 20,2 17,2 13 7 28 15 N 1013,1 14 0 0,0
03.08.2020 07:00:00 13,9 13,7 14,0 17,1 20,4 17,2 14 8 26 14 N 1012,5 1,6 0 0,0
03.08.2020 06:00:00 14,6 14,1 14,5 17,2 20,6 17,2 11 6 24 13 N 1012,1 8 0 0,0
03.08.2020 05:00:00 15,2 14,7 15,0 17,3 20,8 17,2 10 5 16 8 NNW 1012,1 7 0 0,0
03.08.2020 04:00:00 15,1 14,7 14,7 17,6 21,0 17,2 11 6 15 8 NNW 1012,3 6 0 0,0
03.08.2020 03:00:00 15,3 14,7 14,6 18,0 21,2 17,2 5 3 8 4 NNW 1012,6 8 0 0,0
03.08.2020 02:00:00 15,7 14,9 15,2 18,3 21,4 17,1 4 2 11 6 N 1012,8 11 0 0,0
03.08.2020 01:00:00 16,1 15,6 15,9 18,7 21,7 17,1 9 5 17 9 NW 1013,1 7 0 0,0
03.08.2020 00:00:00 16,4 15,8 16,0 19,2 21,9 17,1 9 5 18 10 NNW 1012,9 6 0 0,0
02.08.2020 23:00:00 16,7 16,2 16,7 19,5 22,1 17,1 8 4 12 6 NW 1012,9 16 0 0,0
02.08.2020 22:00:00 16,7 16,1 16,3 19,9 22,3 17,1 6 4 11 6 WNW 1012,8 24 0 0,0
02.08.2020 21:00:00 17,2 16,3 17,0 20,5 22,5 17,1 9 5 17 9 N 1012,6 24 0 0,0
02.08.2020 20:00:00 18,0 16,9 18,0 21,1 22,7 17,1 6 4 10 5 NW 1012,2 17 0 0,0
02.08.2020 19:00:00 17,8 16,6 17,8 21,2 22,9 17,1 6 3 14 7 N 1012,4 16 0 0,8
02.08.2020 18:00:00 17,9 16,9 17,7 21,6 23,1 17,1 8 4 35 19 N 1012,7 5 0 8,7
02.08.2020 17:00:00 19,9 17,0 18,9 24,2 23,1 17,0 8 4 15 8 N 1012,0 17 0 0,1
02.08.2020 16:00:00 20,7 16,3 22,0 25,3 23,1 17,0 9 5 18 10 NW 1011,9 36 0 0,0
02.08.2020 15:00:00 21,3 15,9 23,0 25,6 23,0 17,0 8 4 16 9 NW 1011,2 39 0 0,0
02.08.2020 14:00:00 22,0 15,0 23,9 25,7 22,8 17,0 10 6 17 9 N 1011,6 47 0 0,0
02.08.2020 13:00:00 21,9 14,5 23,7 26,3 22,5 17,0 13 7 30 16 NNW 1012,0 49 3 0,0
02.08.2020 12:00:00 23,9 14,8 28,7 26,8 22,3 17,0 21 11 31 17 NNW 1011,8 49 19 0,0
02.08.2020 11:00:00 24,0 13,4 26,0 25,5 22,1 17,0 20 11 30 16 NNW 1011,1 63 14 0,0
02.08.2020 10:00:00 23,3 13,0 24,7 24,0 22,1 17,0 10 5 16 9 WSW 1010,7 59 48 0,0
02.08.2020 09:00:00 22,1 12,4 24,6 21,6 22,2 17,0 7 4 16 8 S 1010,8 75 43 0,0
02.08.2020 08:00:00 19,5 13,0 20,5 20,3 22,5 17,0 9 5 15 8 SE 1011,6 52 50 0,0
02.08.2020 07:00:00 17,4 13,5 17,0 19,0 22,8 17,0 3 2 7 4 SE 1012,2 65 31 0,0
02.08.2020 06:00:00 16,9 13,2 14,0 19,3 23,2 17,0 3 2 10 5 SE 1012,4 55 0 0,0
02.08.2020 05:00:00 17,2 13,5 14,7 20,0 23,5 16,9 8 4 10 5 WSW 1012,1 53 0 0,0
02.08.2020 04:00:00 17,7 14,4 15,5 20,8 23,9 16,9 5 3 11 6 WNW 1012,2 57 0 0,0
02.08.2020 03:00:00 17,8 14,7 15,8 21,4 24,3 16,9 3 2 10 5 NNW 1012,7 49 0 0,0
02.08.2020 02:00:00 19,0 14,5 15,7 22,3 24,6 16,9 4 2 11 6 NNW 1012,6 58 0 0,1
02.08.2020 01:00:00 19,6 15,0 16,7 23,5 25,0 16,9 8 5 13 7 N 1012,8 58 0 0,5
02.08.2020 00:00:00 21,5 14,9 18,7 24,8 25,2 16,9 11 6 34 19 N 1013,1 34 0 0,1
01.08.2020 23:00:00 24,3 13,0 23,7 26,0 25,4 16,9 18 10 33 18 NNW 1012,5 50 0 0,0
01.08.2020 22:00:00 25,6 12,8 24,8 26,9 25,6 16,9 16 8 26 14 NNW 1012,1 62 0 0,0
01.08.2020 21:00:00 27,3 10,5 26,2 28,0 25,7 16,9 6 4 15 8 NNE 1010,7 71 0 0,0
01.08.2020 20:00:00 29,0 9,8 27,7 29,2 25,6 16,9 9 5 16 9 ENE 1010,3 75 0 0,0
01.08.2020 19:00:00 30,3 9,6 30,5 30,9 25,4 16,9 13 7 25 14 ENE 1010,2 74 50 0,0
01.08.2020 18:00:00 31,3 9,4 34,4 32,2 25,0 16,9 14 7 22 12 NE 1010,3 67 46 0,0
01.08.2020 17:00:00 31,2 8,0 33,7 33,3 24,4 16,9 9 5 20 11 N 1010,7 70 48 0,0
01.08.2020 16:00:00 31,1 8,8 35,7 34,2 23,8 16,8 10 5 29 16 NNW 1011,0 71 57 0,0
01.08.2020 15:00:00 31,2 8,4 36,3 34,0 23,1 16,8 9 5 16 9 SW 1011,3 65 60 0,0
01.08.2020 14:00:00 29,6 9,7 35,9 33,2 22,4 16,8 8 4 17 9 E 1012,2 65 58 0,0
01.08.2020 13:00:00 29,0 10,4 34,7 32,1 21,7 16,8 8 4 16 9 SSE 1012,9 46 60 0,0
01.08.2020 12:00:00 27,6 10,0 33,4 30,0 21,2 16,8 5 3 11 6 E 1013,4 55 60 0,0
01.08.2020 11:00:00 25,9 10,0 30,9 26,9 20,9 16,8 5 3 17 9 SSE 1014,0 75 60 0,0
01.08.2020 10:00:00 24,1 10,8 27,6 23,8 20,7 16,8 9 5 19 11 SSE 1014,3 46 60 0,0
01.08.2020 09:00:00 20,6 10,7 22,7 20,8 20,8 16,8 10 5 16 8 SE 1015,0 70 60 0,0
01.08.2020 08:00:00 18,1 10,5 19,3 18,4 21,1 16,8 8 4 11 6 SE 1015,9 72 60 0,0
01.08.2020 07:00:00 16,1 10,1 16,1 16,7 21,5 16,8 6 4 9 5 SE 1016,6 62 45 0,0
01.08.2020 06:00:00 13,8 10,1 9,4 16,9 21,9 16,8 4 2 7 4 SSE 1017,0 52 0 0,0
01.08.2020 05:00:00 14,3 10,2 9,8 17,5 22,3 16,8 3 1 7 4 ESE 1016,9 69 0 0,0
01.08.2020 04:00:00 14,7 10,3 10,1 18,2 22,7 16,8 4 2 6 3 SSE 1017,1 63 0 0,0
01.08.2020 03:00:00 15,2 10,6 10,6 19,0 23,1 16,8 3 1 5 3 E 1017,5 58 0 0,0
01.08.2020 02:00:00 16,4 10,8 12,0 19,9 23,5 16,8 2 1 7 4 SE 1017,5 65 0 0,0

tt = temperature
td = dewpoint
tt 5cm = temperature 5cm
tt -5cm = temperature -5cm
tt -20cm = temperature -20cm
tt -100cm = temperature -100cm
ff = wind speed
fx = gusts
dd = wind direction
ppp = reduced air pressure
vv = visibility
sd = sunshine duration
rr = precipitation

Next stations